Aeroporto :
LOGIN :

Iscrizione | Disclaimer

   EN    FR    IT 

 










Sommario :    VFR   VFR Marginale   IFR   IFR Intensivo   IFR Molto Intensivo
Visibilità : 
Base nubi : 
>= 8 km
>= 3000ft
5 / 8 km
1000 / 3000 ft
1500m / 5 km
500 / 1000 ft
800 / 1500m
200 / 500 ft
< 800m
< 200 ft
Simboli :   Temporali  Nebbia  Neve Forte  Precipitazioni Forti  Vento > 20 kt
SIGMETs :   Varie  Temporali  Ghiacco  Turbolenza  Onda orograficha  Ceneri Vulcaniche







- Altitudine del aeroporto : 465 ft
- Codice IATA : LEJ


EDDP - Leipzig Halle

ULTIMO METAR :
  • 210150Z 21008KT CAVOK 17/16 Q1015 NOSIG

METARs OBSOLETI :
  • 210120Z 19007KT CAVOK 18/16 Q1015 NOSIG
  • 210050Z 19006KT CAVOK 18/16 Q1015 NOSIG
  • 210020Z 21008KT CAVOK 18/16 Q1015 NOSIG
  • 202350Z 18007KT CAVOK 17/16 Q1014 NOSIG
  • 202320Z 23005KT CAVOK 17/16 Q1014 NOSIG

TAF TAF EDDP
Valido dal 21 a 00 ore il 22 a 00 ore UTC


202300Z 2100/2124 24007KT 9999 SCT030
PROB30
TEMPO 2100/2104 24015G25KT -TSRA BKN014CB
TEMPO 2104/2108 BKN014
BECMG 2108/2111 28012KT
TEMPO 2111/2116 30015G25KT
BECMG 2116/2119 31007KT
Nessun NOTAM noto per questo aeroporto.



MetMap, La meteo Aeronautica in un colpo d'occhio ! - Copyright ORBIFLY Dicembre 2007 - Disclaimer

ORBIFLY MET'MAP TEAM :

Programmazione e sviluppo : Alexandra Zaïnal
Concezione e sviluppo : Baudouin d'Aumeries
Co-Programmazione e sviluppo : Marc-Olivier Méhu
Supporto tecnico e logistico : Manuel Goepfert
Aiuto per la traduzione : Arnaldo La Scala

Contatto : metmap@orbifly.com




FONTI E CREDITI :

   NOAA